GEESAT-6 09

Last updated on Mon Oct 20 2025 00:02:06 GMT+0000 (Coordinated Universal Time)

1 65721U 25214K 25292.26103787 .00005260 00000+0 62368-3 0 9999 2 65721 49.9834 345.9937 0011741 10.9590 349.1603 14.85802704 3725
UTC large
Height (km)
Speed (km/s)
/
Latitude / Longitude
Inclination (degrees)
Orbital Period (minutes)
Azimuth
Elevation
Range (km)
Doppler Factor

Next 0 passes for location: London (51.5072 / 0.1276)

Sorry there are no passes over London.